Date String (YYYY-MM-DD hh:mm:ss) UTC,Instrument flags,Ambient pressure (hPa),Sample flow (lpm),Bypass flow (lpm),Sample temperature (°C),Ambient temperature (°C),ASC tube jacket temperature (°C),LED temperature (°C),Box temperature (°C),Sample RH (%),Span deviation,Mass concentration (μg/m³),Mass concentration (μg/m³),Mass concentration (μg/m³)
DateTimeUTC,F1_M11,P_M11,Q1_M11,Q2_M11,T1_M11,T2_M11,T3_M11,T4_M11,T5_M11,U1_M11,ZSPAN_M11,X0_M11,X2_M11,X1_M11
2021-09-07 12:00:00,,0830.4,5.00,0.00,29.8,28.7,00.0,38.9,31.6,08.6,0001.2,0032.95,0023.50,0022.25
2021-09-07 12:01:00,,0830.5,5.00,0.00,29.9,28.8,00.0,38.9,31.6,08.6,0001.2,0032.78,0023.51,0022.26
2021-09-07 12:02:00,,0830.4,5.01,0.00,29.9,28.8,00.0,38.9,31.7,08.5,0001.1,0032.65,0023.47,0022.22
2021-09-07 12:03:00,,0830.5,4.99,0.00,29.9,28.8,00.0,39.0,31.6,08.5,0001.0,0032.52,0023.42,0022.23
2021-09-07 12:04:00,,0830.5,5.01,0.00,29.9,28.9,00.0,39.0,31.7,08.5,0000.7,0032.76,0023.42,0022.23
2021-09-07 12:05:00,,0830.5,5.00,0.00,30.0,28.9,00.0,39.0,31.7,08.5,0000.1,0032.52,0023.45,0022.24
2021-09-07 12:06:00,,0830.5,5.00,0.00,30.0,28.9,00.0,39.0,31.7,08.5,0000.2,0031.84,0023.45,0022.27
2021-09-07 12:07:00,,0830.5,4.99,0.00,30.0,28.9,00.0,39.0,31.7,08.5,0000.2,0031.01,0023.40,0022.25
2021-09-07 12:08:00,,0830.5,5.01,0.00,30.0,29.0,00.0,39.0,31.7,08.5,0000.3,0030.94,0023.40,0022.26
2021-09-07 12:09:00,,0830.5,4.99,0.00,30.0,29.0,00.0,39.0,31.7,08.5,0000.4,0031.02,0023.44,0022.29
2021-09-07 12:10:00,,0830.6,5.01,0.00,30.0,29.0,00.0,39.1,31.7,08.5,0001.1,0031.04,0023.47,0022.33
2021-09-07 12:11:00,,0830.5,5.00,0.00,30.1,29.0,00.0,39.1,31.8,08.5,0001.9,0031.68,0023.47,0022.34
2021-09-07 12:12:00,,0830.5,4.99,0.00,30.1,29.0,00.0,39.1,31.8,08.4,0002.4,0031.87,0023.47,0022.35
2021-09-07 12:13:00,,0830.6,5.01,0.00,30.1,29.1,00.0,39.1,31.9,08.4,0002.3,0032.53,0023.50,0022.41
2021-09-07 12:14:00,,0830.6,4.99,0.00,30.1,29.1,00.0,39.1,31.9,08.4,0002.7,0032.58,0023.54,0022.43
2021-09-07 12:15:00,,0830.6,5.02,0.00,30.1,28.7,00.0,39.1,31.8,08.4,0003.2,0032.34,0023.51,0022.45
2021-09-07 12:16:00,,0830.5,4.99,0.00,30.0,26.8,00.0,39.1,31.2,08.4,0003.3,0031.95,0023.50,0022.45
2021-09-07 12:17:00,,0830.5,5.01,0.00,29.9,26.2,00.0,39.1,31.1,08.5,0003.1,0032.78,0023.50,0022.43
2021-09-07 12:18:00,,0830.5,4.98,0.00,29.7,26.4,00.0,39.0,31.0,08.6,0003.2,0033.04,0023.55,0022.47
2021-09-07 12:19:00,,0830.5,5.01,0.00,29.7,26.9,00.0,39.0,31.1,08.7,0003.2,0033.00,0023.54,0022.49
2021-09-07 12:20:00,,0830.6,4.99,0.00,29.7,27.2,00.0,38.9,31.1,08.7,0003.2,0033.06,0023.55,0022.47
2021-09-07 12:21:00,,0830.6,5.01,0.00,29.7,27.5,00.0,38.9,31.2,08.6,0002.9,0033.43,0023.61,0022.48
2021-09-07 12:22:00,,0830.6,4.99,0.00,29.7,27.8,00.0,38.9,31.3,08.6,0002.5,0033.21,0023.61,0022.49
2021-09-07 12:23:00,,0830.6,5.01,0.00,29.7,28.0,00.0,38.9,31.3,08.5,0002.7,0033.11,0023.63,0022.51
2021-09-07 12:24:00,,0830.6,5.01,0.00,29.7,28.1,00.0,38.9,31.3,08.5,0001.9,0032.34,0023.59,0022.50
2021-09-07 12:25:00,,0830.6,4.99,0.00,29.7,28.3,00.0,38.9,31.4,08.5,0001.5,0032.40,0023.55,0022.49
2021-09-07 12:26:00,,0830.6,4.99,0.00,29.7,28.4,00.0,38.9,31.4,08.5,0000.6,0032.33,0023.55,0022.49
2021-09-07 12:27:00,,0830.6,5.00,0.00,29.7,28.4,00.0,38.9,31.4,08.4,0000.2,0032.54,0023.56,0022.49
2021-09-07 12:28:00,,0830.7,5.00,0.00,29.8,28.5,00.0,38.9,31.4,08.4,0000.6,0031.85,0023.60,0022.51
2021-09-07 12:29:00,,0830.7,5.01,0.00,29.8,28.6,00.0,38.9,31.5,08.4,0001.5,0031.60,0023.65,0022.56
2021-09-07 12:30:00,,0830.8,5.01,0.00,29.8,28.6,00.0,38.9,31.5,08.6,0001.5,0031.89,0023.74,0022.63
2021-09-07 12:31:00,,0830.8,4.99,0.00,29.8,28.7,00.0,38.9,31.5,08.7,0001.4,0032.26,0023.81,0022.72
2021-09-07 12:32:00,,0830.8,5.00,0.00,29.8,28.7,00.0,38.9,31.5,08.6,0001.4,0032.35,0023.80,0022.77
2021-09-07 12:33:00,,0830.8,5.00,0.00,29.9,28.8,00.0,38.9,31.6,08.7,0001.1,0032.81,0023.92,0022.86
2021-09-07 12:34:00,,0830.7,5.00,0.00,29.9,28.8,00.0,38.9,31.6,08.5,0001.2,0032.89,0023.99,0022.91
2021-09-07 12:35:00,,0830.8,5.01,0.00,29.9,28.8,00.0,38.9,31.6,08.5,0001.4,0033.33,0024.17,0023.02
2021-09-07 12:36:00,,0830.8,5.00,0.00,29.9,28.9,00.0,39.0,31.7,08.3,0001.4,0033.56,0024.29,0023.09
2021-09-07 12:37:00,,0830.8,5.00,0.00,29.9,28.9,00.0,39.0,31.7,08.3,0002.1,0033.64,0024.34,0023.14
2021-09-07 12:38:00,,0830.8,5.00,0.00,30.0,28.9,00.0,39.0,31.7,08.3,0002.5,0033.53,0024.41,0023.22
2021-09-07 12:39:00,,0830.8,5.01,0.00,30.0,29.0,00.0,39.0,31.7,08.3,0002.7,0034.08,0024.47,0023.32
2021-09-07 12:40:00,,0830.8,5.00,0.00,30.0,29.0,00.0,39.0,31.8,08.3,0002.3,0035.24,0024.50,0023.33
2021-09-07 12:41:00,,0830.8,4.99,0.00,30.0,29.0,00.0,39.0,31.7,08.3,0002.8,0035.29,0024.54,0023.33
2021-09-07 12:42:00,,0830.9,5.00,0.00,30.1,29.0,00.0,39.1,31.8,08.2,0003.5,0034.96,0024.56,0023.35
2021-09-07 12:43:00,,0830.9,5.00,0.00,30.1,29.0,00.0,39.1,31.9,08.1,0003.6,0034.47,0024.57,0023.41
2021-09-07 12:44:00,,0830.9,5.00,0.00,30.1,29.0,00.0,39.1,31.8,08.2,0003.8,0033.84,0024.51,0023.40
2021-09-07 12:45:00,,0830.9,5.01,0.00,30.1,29.1,00.0,39.1,31.8,08.3,0003.6,0033.98,0024.57,0023.46
2021-09-07 12:46:00,,0830.9,4.99,0.00,30.1,29.1,00.0,39.1,31.9,08.3,0003.2,0034.48,0024.55,0023.46
2021-09-07 12:47:00,,0830.9,5.01,0.00,30.1,29.1,00.0,39.1,31.9,08.4,0003.3,0034.54,0024.53,0023.47
2021-09-07 12:48:00,,0830.9,5.00,0.00,30.2,29.1,00.0,39.2,31.9,08.4,0003.0,0034.90,0024.54,0023.48
2021-09-07 12:49:00,,0830.9,4.99,0.00,30.2,29.2,00.0,39.2,31.9,08.2,0002.9,0035.11,0024.57,0023.46
2021-09-07 12:50:00,,0830.9,4.98,0.00,30.2,28.2,00.0,39.2,31.7,08.3,0002.7,0034.74,0024.64,0023.47
2021-09-07 12:51:00,,0830.9,5.00,0.00,30.0,26.4,00.0,39.1,31.2,08.3,0003.0,0034.24,0024.70,0023.53
2021-09-07 12:52:00,,0830.9,5.01,0.00,29.9,26.3,00.0,39.1,31.1,08.4,0002.7,0034.08,0024.67,0023.55
2021-09-07 12:53:00,,0830.9,5.00,0.00,29.8,26.6,00.0,39.1,31.2,08.7,0002.2,0034.11,0024.67,0023.53
2021-09-07 12:54:00,,0831.0,5.00,0.00,29.7,27.1,00.0,39.0,31.2,09.2,0001.8,0034.15,0024.68,0023.50
2021-09-07 12:55:00,,0831.0,5.00,0.00,29.7,27.4,00.0,39.0,31.2,09.5,0001.3,0034.13,0024.70,0023.50
2021-09-07 12:56:00,,0831.0,5.02,0.00,29.7,27.7,00.0,39.0,31.3,09.4,0001.2,0033.98,0024.65,0023.46
2021-09-07 12:57:00,,0831.0,4.99,0.00,29.7,28.0,00.0,38.9,31.3,09.2,0001.4,0033.27,0024.64,0023.45
2021-09-07 12:58:00,,0831.1,4.99,0.00,29.7,28.2,00.0,38.9,31.4,09.2,0001.4,0033.09,0024.65,0023.42
2021-09-07 12:59:00,,0831.1,5.00,0.00,29.8,28.3,00.0,38.9,31.4,09.0,0001.5,0033.41,0024.69,0023.44
